| time (UTC) | temp C | wind direction | speed KPH | gust KPH | rain 1hr cm | rain 24hr cm | rain mn cm | humidity % | barometer mb |
| 20260509144528 | 16 | 293 | 1.6 | 12.9 | 0.00 | 0.00 | 0.00 | 72 | 1011.5 |
| 20260509143034 | 16 | 286 | 1.6 | 11.3 | 0.00 | 0.00 | 0.00 | 73 | 1011.4 |
| 20260509141530 | 16 | 269 | 0.0 | 11.3 | 0.00 | 0.00 | 0.00 | 74 | 1011.4 |
| 20260509140049 | 15 | 0 | 0.0 | 9.7 | 0.00 | 0.00 | 0.00 | 75 | 1011.2 |
| 20260509134530 | 15 | 0 | 0.0 | 6.4 | 0.00 | 0.00 | 0.00 | 78 | 1011.4 |
| 20260509133027 | 13 | 0 | 0.0 | 4.8 | 0.00 | 0.00 | 0.00 | 81 | 1011.4 |
| 20260509131535 | 13 | 0 | 0.0 | 0.0 | 0.00 | 0.00 | 0.00 | 83 | 1011.3 |
| 20260509130029 | 12 | 0 | 0.0 | 0.0 | 0.00 | 0.00 | 0.00 | 85 | 1011.5 |
| 20260509124534 | 11 | 0 | 0.0 | 0.0 | 0.00 | 0.00 | 0.00 | 87 | 1011.7 |
| 20260509123030 | 11 | 0 | 0.0 | 1.6 | 0.00 | 0.00 | 0.00 | 88 | 1011.7 |
| 20260509121544 | 10 | 0 | 0.0 | 0.0 | 0.00 | 0.00 | 0.00 | 89 | 1011.7 |
| 20260509120034 | 10 | 0 | 0.0 | 0.0 | 0.00 | 0.00 | 0.00 | 88 | 1011.7 |
| 20260509114532 | 10 | 0 | 0.0 | 0.0 | 0.00 | 0.00 | 0.00 | 89 | 1011.6 |
| 20260509113027 | 10 | 0 | 0.0 | 0.0 | 0.00 | 0.00 | 0.00 | 89 | 1011.6 |
| 20260509111528 | 10 | 0 | 0.0 | 0.0 | 0.00 | 0.00 | 0.00 | 88 | 1011.7 |
| 20260509110028 | 10 | 0 | 0.0 | 0.0 | 0.00 | 0.00 | 0.00 | 88 | 1011.8 |
| 20260509104526 | 10 | 0 | 0.0 | 0.0 | 0.00 | 0.00 | 0.00 | 88 | 1011.6 |
| 20260509103027 | 10 | 0 | 0.0 | 0.0 | 0.00 | 0.00 | 0.00 | 88 | 1011.5 |
| 20260509101528 | 9 | 0 | 0.0 | 0.0 | 0.00 | 0.00 | 0.00 | 88 | 1011.6 |
| 20260509100032 | 9 | 0 | 0.0 | 0.0 | 0.00 | 0.00 | 0.00 | 88 | 1011.5 |
| 20260509094527 | 9 | 0 | 0.0 | 0.0 | 0.00 | 0.00 | 0.00 | 88 | 1011.4 |
| 20260509093028 | 9 | 0 | 0.0 | 0.0 | 0.00 | 0.00 | 0.00 | 88 | 1011.5 |
| 20260509091530 | 9 | 0 | 0.0 | 0.0 | 0.00 | 0.00 | 0.00 | 88 | 1011.5 |
| 20260509090030 | 9 | 0 | 0.0 | 0.0 | 0.00 | 0.00 | 0.00 | 87 | 1011.5 |
| 20260509084536 | 9 | 0 | 0.0 | 0.0 | 0.00 | 0.00 | 0.00 | 87 | 1011.6 |
| 20260509083038 | 9 | 0 | 0.0 | 0.0 | 0.00 | 0.00 | 0.00 | 87 | 1011.6 |
| 20260509081528 | 9 | 0 | 0.0 | 0.0 | 0.00 | 0.00 | 0.00 | 87 | 1011.6 |
| 20260509080029 | 9 | 0 | 0.0 | 0.0 | 0.00 | 0.00 | 0.00 | 87 | 1011.6 |
| 20260509074528 | 9 | 0 | 0.0 | 0.0 | 0.00 | 0.00 | 0.00 | 86 | 1011.8 |
| 20260509073029 | 10 | 0 | 0.0 | 0.0 | 0.00 | 0.00 | 0.00 | 84 | 1011.7 |
| 20260509071526 | 10 | 0 | 0.0 | 0.0 | 0.00 | 0.00 | 0.00 | 84 | 1011.7 |
| 20260509070028 | 10 | 0 | 0.0 | 0.0 | 0.00 | 0.00 | 0.00 | 84 | 1011.8 |
| 20260509064528 | 10 | 0 | 0.0 | 0.0 | 0.00 | 0.00 | 0.00 | 84 | 1011.8 |
| 20260509063033 | 10 | 0 | 0.0 | 0.0 | 0.00 | 0.00 | 0.00 | 83 | 1012.0 |
| 20260509061536 | 11 | 0 | 0.0 | 0.0 | 0.00 | 0.00 | 0.00 | 82 | 1012.2 |
| 20260509060028 | 11 | 0 | 0.0 | 0.0 | 0.00 | 0.00 | 0.00 | 82 | 1012.5 |
| 20260509054528 | 11 | 0 | 0.0 | 0.0 | 0.00 | 0.00 | 0.00 | 82 | 1012.5 |
| 20260509053032 | 11 | 0 | 0.0 | 0.0 | 0.00 | 0.00 | 0.00 | 81 | 1012.5 |
| 20260509051527 | 11 | 0 | 0.0 | 0.0 | 0.00 | 0.00 | 0.00 | 80 | 1012.8 |
| 20260509050031 | 11 | 0 | 0.0 | 0.0 | 0.00 | 0.00 | 0.00 | 83 | 1012.5 |
| 20260509044528 | 11 | 0 | 0.0 | 0.0 | 0.00 | 0.00 | 0.00 | 80 | 1012.6 |
| 20260509043026 | 11 | 0 | 0.0 | 0.0 | 0.00 | 0.00 | 0.00 | 83 | 1012.6 |
| 20260509041537 | 11 | 0 | 0.0 | 0.0 | 0.00 | 0.00 | 0.00 | 81 | 1012.8 |
| 20260509040029 | 11 | 0 | 0.0 | 0.0 | 0.00 | 0.00 | 0.00 | 81 | 1012.8 |
| 20260509034530 | 11 | 0 | 0.0 | 0.0 | 0.00 | 0.00 | 0.00 | 80 | 1012.9 |
| 20260509033026 | 11 | 0 | 0.0 | 0.0 | 0.00 | 0.00 | 0.00 | 79 | 1012.7 |
| 20260509031531 | 12 | 0 | 0.0 | 0.0 | 0.00 | 0.00 | 0.00 | 79 | 1012.5 |
| 20260509030028 | 12 | 0 | 0.0 | 0.0 | 0.00 | 0.00 | 0.00 | 77 | 1012.7 |
| 20260509024530 | 12 | 0 | 0.0 | 0.0 | 0.00 | 0.00 | 0.00 | 77 | 1012.7 |
| 20260509023027 | 12 | 0 | 0.0 | 0.0 | 0.00 | 0.00 | 0.00 | 75 | 1012.6 |
| 20260509021528 | 12 | 0 | 0.0 | 0.0 | 0.00 | 0.00 | 0.00 | 75 | 1012.6 |
| 20260509020029 | 12 | 0 | 0.0 | 0.0 | 0.00 | 0.00 | 0.00 | 77 | 1012.4 |
| 20260509014527 | 12 | 0 | 0.0 | 0.0 | 0.00 | 0.00 | 0.00 | 75 | 1012.3 |
| 20260509013036 | 12 | 0 | 0.0 | 0.0 | 0.00 | 0.00 | 0.00 | 75 | 1012.1 |
| 20260509011530 | 13 | 0 | 0.0 | 0.0 | 0.00 | 0.00 | 0.00 | 74 | 1012.0 |
| 20260509010039 | 13 | 0 | 0.0 | 0.0 | 0.00 | 0.00 | 0.00 | 70 | 1011.8 |
| 20260509004530 | 13 | 0 | 0.0 | 0.0 | 0.00 | 0.00 | 0.00 | 71 | 1011.5 |
| 20260509003028 | 13 | 0 | 0.0 | 0.0 | 0.00 | 0.00 | 0.00 | 72 | 1011.1 |
| 20260509001527 | 14 | 0 | 0.0 | 0.0 | 0.00 | 0.00 | 0.00 | 68 | 1011.1 |
| 20260509000027 | 15 | 0 | 0.0 | 0.0 | 0.00 | 0.00 | 0.00 | 66 | 1011.1 |
| 20260508234528 | 15 | 0 | 0.0 | 0.0 | 0.00 | 0.00 | 0.00 | 56 | 1011.0 |
| 20260508233028 | 15 | 0 | 0.0 | 0.0 | 0.00 | 0.00 | 0.00 | 55 | 1010.8 |
| 20260508231528 | 16 | 0 | 0.0 | 1.6 | 0.00 | 0.00 | 0.00 | 52 | 1010.7 |
| 20260508230037 | 16 | 0 | 0.0 | 4.8 | 0.00 | 0.00 | 0.00 | 54 | 1010.5 |
| 20260508224537 | 17 | 0 | 0.0 | 4.8 | 0.00 | 0.00 | 0.00 | 51 | 1010.6 |
| 20260508223026 | 17 | 0 | 0.0 | 8.0 | 0.00 | 0.00 | 0.00 | 44 | 1010.6 |
| 20260508221541 | 17 | 0 | 0.0 | 6.4 | 0.00 | 0.00 | 0.00 | 42 | 1010.7 |
| 20260508220030 | 17 | 269 | 0.0 | 11.3 | 0.00 | 0.00 | 0.00 | 42 | 1010.6 |
| 20260508214530 | 18 | 254 | 1.6 | 12.9 | 0.00 | 0.03 | 0.00 | 40 | 1010.7 |
| 20260508213029 | 18 | 192 | 1.6 | 11.3 | 0.00 | 0.03 | 0.00 | 40 | 1010.5 |
| 20260508211527 | 18 | 279 | 3.2 | 11.3 | 0.00 | 0.03 | 0.00 | 41 | 1010.7 |
| 20260508210030 | 17 | 282 | 0.0 | 20.9 | 0.00 | 0.03 | 0.00 | 43 | 1010.8 |
| 20260508204528 | 17 | 0 | 0.0 | 11.3 | 0.00 | 0.03 | 0.00 | 42 | 1010.7 |
| 20260508203029 | 17 | 300 | 0.0 | 12.9 | 0.00 | 0.03 | 0.00 | 41 | 1010.9 |
| 20260508201528 | 18 | 281 | 6.4 | 17.7 | 0.00 | 0.03 | 0.00 | 39 | 1010.9 |
| 20260508200026 | 17 | 0 | 8.0 | 17.7 | 0.00 | 0.03 | 0.00 | 42 | 1011.0 |
| 20260508194528 | 17 | 259 | 1.6 | 11.3 | 0.00 | 0.03 | 0.00 | 41 | 1010.9 |
| 20260508193030 | 17 | 263 | 4.8 | 35.4 | 0.00 | 0.03 | 0.00 | 40 | 1011.0 |
| 20260508191530 | 17 | 339 | 6.4 | 17.7 | 0.00 | 0.03 | 0.00 | 42 | 1010.9 |
| 20260508190031 | 17 | 229 | 6.4 | 17.7 | 0.00 | 0.03 | 0.00 | 43 | 1011.0 |
| 20260508184533 | 18 | 290 | 4.8 | 16.1 | 0.00 | 0.03 | 0.00 | 39 | 1011.0 |
| 20260508183030 | 17 | 258 | 4.8 | 19.3 | 0.00 | 0.03 | 0.00 | 42 | 1011.3 |
| 20260508181529 | 17 | 248 | 4.8 | 16.1 | 0.00 | 0.03 | 0.00 | 39 | 1011.4 |
| 20260508180027 | 17 | 273 | 6.4 | 20.9 | 0.00 | 0.03 | 0.00 | 41 | 1011.4 |
| 20260508174536 | 17 | 320 | 6.4 | 17.7 | 0.00 | 0.03 | 0.00 | 41 | 1011.6 |
| 20260508173028 | 16 | 290 | 6.4 | 24.1 | 0.00 | 0.03 | 0.00 | 42 | 1011.7 |
| 20260508171526 | 17 | 200 | 9.7 | 22.5 | 0.00 | 0.03 | 0.00 | 39 | 1012.1 |
| 20260508170030 | 16 | 338 | 4.8 | 19.3 | 0.00 | 0.03 | 0.00 | 46 | 1011.9 |
| 20260508164534 | 16 | 269 | 8.0 | 25.7 | 0.00 | 0.03 | 0.00 | 44 | 1011.9 |
| 20260508163028 | 15 | 243 | 3.2 | 24.1 | 0.00 | 0.03 | 0.00 | 45 | 1012.2 |
| 20260508161526 | 15 | 327 | 6.4 | 16.1 | 0.00 | 0.03 | 0.00 | 45 | 1012.7 |
| 20260508160031 | 15 | 189 | 1.6 | 14.5 | 0.00 | 0.03 | 0.00 | 46 | 1013.0 |
| 20260508154528 | 14 | 211 | 3.2 | 12.9 | 0.00 | 0.03 | 0.00 | 48 | 1013.1 |
| 20260508153028 | 13 | 265 | 1.6 | 9.7 | 0.00 | 0.03 | 0.00 | 49 | 1013.5 |
| 20260508151530 | 13 | 281 | 1.6 | 11.3 | 0.00 | 0.03 | 0.00 | 47 | 1013.5 |
| 20260508150026 | 13 | 0 | 3.2 | 12.9 | 0.00 | 0.03 | 0.00 | 45 | 1013.6 |